CW8490 Weather Reports


Display with metric or nautical units.
time (UTC)temp
F
wind
direction
speed
MPH
gust
MPH
rain 1hr
in
rain 24hr
in
rain mn
in
humidity
%
barometer
mb
20260902053917 77 0.0 0.0 0.00 0.00 0.00 77 1013.5
20260902052917 76 0.0 0.0 0.00 0.00 0.00 79 1013.4
20260902051917 76 0.0 0.0 0.00 0.00 0.00 80 1013.4
20260902050917 76 0.0 0.0 0.00 0.00 0.00 78 1013.3
20260902045957 76 0.0 0.0 0.00 0.00 0.00 78 1013.1
20260902044916 76 0.0 0.0 0.00 0.00 0.00 79 1013.2
20260902043916 77 0.0 0.0 0.00 0.00 0.00 78 1013.3
20260902042916 77 0.0 0.0 0.00 0.00 0.00 75 1013.3
20260902041916 78 0.0 0.0 0.00 0.00 0.00 75 1013.3
20260902040917 78 0.0 0.0 0.00 0.00 0.00 72 1013.2
20260902035916 79 0.0 0.0 0.00 0.00 0.00 71 1013.1
20260902034916 80 0.0 0.0 0.00 0.00 0.00 70 1013.2
20260902033916 80 0.0 0.0 0.00 0.00 0.00 69 1013.2
20260902032916 81 0.0 0.0 0.00 0.00 0.00 68 1013.1
20260902031917 82 0.0 0.0 0.00 0.00 0.00 67 1013.0
20260902030917 83 0.0 0.0 0.00 0.00 0.00 65 1012.9
20260902025916 84 0.0 0.0 0.00 0.00 0.00 64 1012.8
20260902024916 84 0.0 1.0 0.00 0.00 0.00 63 1012.8
20260902023936 85 0.0 1.0 0.00 0.00 0.00 61 1012.8
20260902022916 85 113 1.0 2.0 0.00 0.00 0.00 62 1012.7
20260902021916 84 0.0 1.0 0.00 0.00 0.00 63 1012.5
20260902020917 84 113 1.0 2.0 0.00 0.00 0.00 63 1012.5
20260902015916 84 113 1.0 3.0 0.00 0.00 0.00 63 1012.4
20260902014936 83 0.0 1.0 0.00 0.00 0.00 66 1012.3
20260902013936 83 0.0 0.0 0.00 0.00 0.00 67 1012.2
20260902012916 84 0.0 0.0 0.00 0.00 0.00 66 1012.1
20260902011916 84 0.0 0.0 0.00 0.00 0.00 65 1011.9
20260902010916 85 0.0 0.0 0.00 0.00 0.00 62 1012.0
20260902005916 86 0.0 0.0 0.00 0.00 0.00 62 1011.9
20260902004937 87 0.0 0.0 0.00 0.00 0.00 61 1012.0
20260902003917 89 0.0 0.0 0.00 0.00 0.00 60 1012.0
20260902002956 92 0.0 0.0 0.00 0.00 0.00 53 1012.1
20260902001916 94 0.0 0.0 0.00 0.00 0.00 53 1012.2
20260902000916 96 0.0 0.0 0.00 0.00 0.00 51 1012.4
20260901235916 97 0.0 0.0 0.00 0.00 0.00 48 1012.4
20260901234916 96 0.0 1.0 0.00 0.00 0.00 48 1012.4
20260901233916 97 180 1.0 2.0 0.00 0.00 0.00 47 1012.5
20260901232916 97 158 1.0 2.0 0.00 0.00 0.00 47 1012.5
20260901231917 97 180 2.0 2.0 0.00 0.00 0.00 45 1012.5
20260901230916 98 180 2.0 3.0 0.00 0.00 0.00 45 1012.5
20260901225917 98 225 3.0 5.0 0.00 0.00 0.00 44 1012.5
20260901224916 98 180 4.0 6.0 0.00 0.00 0.00 43 1012.5
20260901223916 98 135 5.0 7.0 0.00 0.00 0.00 44 1012.5
20260901222916 98 158 6.0 11.0 0.00 0.00 0.00 41 1012.5
20260901221916 98 180 4.0 5.0 0.00 0.00 0.00 42 1012.7
20260901220916 98 180 5.0 6.0 0.00 0.00 0.00 41 1012.6
20260901215916 99 158 5.0 7.0 0.00 0.00 0.00 40 1012.6
20260901214917 99 203 2.0 5.0 0.00 0.00 0.00 41 1012.7
20260901213917 99 180 8.0 11.0 0.00 0.00 0.00 39 1012.7
20260901212916 99 203 10.0 14.0 0.00 0.00 0.00 39 1012.8
20260901211916 100 203 4.0 8.0 0.00 0.00 0.00 40 1012.9
20260901210916 99 180 5.0 8.0 0.00 0.00 0.00 40 1013.1
20260901205937 99 203 6.0 9.0 0.00 0.00 0.00 40 1013.0
20260901204916 99 180 2.0 8.0 0.00 0.00 0.00 41 1013.2
20260901203916 99 203 6.0 10.0 0.00 0.00 0.00 40 1013.3
20260901202916 99 180 5.0 8.0 0.00 0.00 0.00 40 1013.4
20260901201916 99 270 2.0 3.0 0.00 0.00 0.00 41 1013.5
20260901200916 99 158 6.0 8.0 0.00 0.00 0.00 40 1013.6
20260901195937 99 203 4.0 7.0 0.00 0.00 0.00 40 1013.6
20260901194916 99 270 4.0 7.0 0.00 0.00 0.00 40 1013.7
20260901193916 99 225 4.0 8.0 0.00 0.00 0.00 40 1013.8
20260901192936 99 203 6.0 12.0 0.00 0.00 0.00 42 1013.9
20260901191916 98 135 7.0 12.0 0.00 0.00 0.00 41 1013.9
20260901190917 99 203 3.0 5.0 0.00 0.00 0.00 42 1014.0
20260901185916 99 203 3.0 6.0 0.00 0.00 0.00 42 1014.2
20260901184916 99 270 3.0 6.0 0.00 0.00 0.00 42 1014.2
20260901183916 99 225 3.0 11.0 0.00 0.00 0.00 45 1014.4
20260901182916 98 158 5.0 7.0 0.00 0.00 0.00 44 1014.5
20260901181916 98 180 4.0 8.0 0.00 0.00 0.00 48 1014.6
20260901180916 99 248 2.0 4.0 0.00 0.00 0.00 44 1014.8
20260901175917 98 158 5.0 7.0 0.00 0.00 0.00 45 1015.0
20260901174916 98 225 3.0 6.0 0.00 0.00 0.00 44 1015.0
20260901173937 98 158 5.0 8.0 0.00 0.00 0.00 45 1015.0
20260901172916 97 293 4.0 5.0 0.00 0.00 0.00 46 1015.2
20260901171936 97 203 4.0 8.0 0.00 0.00 0.00 47 1015.2
20260901170916 96 135 5.0 8.0 0.00 0.00 0.00 50 1015.3
20260901165936 96 203 2.0 2.0 0.00 0.00 0.00 52 1015.5
20260901164916 95 203 3.0 6.0 0.00 0.00 0.00 53 1015.6
20260901163916 94 180 4.0 7.0 0.00 0.00 0.00 53 1015.7
20260901162917 93 180 4.0 7.0 0.00 0.00 0.00 55 1015.8
20260901161917 93 203 3.0 6.0 0.00 0.00 0.00 57 1015.9
20260901160917 92 225 1.0 4.0 0.00 0.00 0.00 58 1015.9
20260901155956 91 180 3.0 7.0 0.00 0.00 0.00 60 1016.0
20260901154917 90 180 5.0 8.0 0.00 0.00 0.00 58 1015.9
20260901153916 88 248 2.0 4.0 0.00 0.00 0.00 60 1015.9
20260901152936 88 158 4.0 5.0 0.00 0.00 0.00 62 1015.9
20260901151917 87 158 2.0 4.0 0.00 0.00 0.00 64 1016.0
20260901150916 86 180 4.0 5.0 0.00 0.00 0.00 64 1016.0
20260901145917 85 203 4.0 7.0 0.00 0.00 0.00 65 1016.0
20260901144916 84 158 2.0 4.0 0.00 0.00 0.00 67 1016.1
20260901143957 83 203 3.0 5.0 0.00 0.00 0.00 68 1016.0
20260901142916 82 180 2.0 4.0 0.00 0.00 0.00 71 1016.1
20260901141916 81 203 4.0 10.0 0.00 0.00 0.00 71 1016.1
20260901140916 81 225 2.0 4.0 0.00 0.00 0.00 72 1016.1
20260901135916 80 180 4.0 6.0 0.00 0.00 0.00 71 1016.0
20260901134916 80 158 2.0 4.0 0.00 0.00 0.00 73 1016.0
20260901133917 79 158 2.0 3.0 0.00 0.00 0.00 73 1016.1
20260901132937 79 180 1.0 3.0 0.00 0.00 0.00 72 1016.0
20260901131917 79 135 1.0 2.0 0.00 0.00 0.00 73 1015.9
20260901130917 78 158 1.0 2.0 0.00 0.00 0.00 73 1015.9
20260901125916 77 0.0 0.0 0.00 0.00 0.00 74 1015.9
20260901124916 76 0.0 0.0 0.00 0.00 0.00 75 1015.9
20260901123917 75 0.0 0.0 0.00 0.00 0.00 77 1015.8
20260901122917 74 0.0 0.0 0.00 0.00 0.00 79 1015.6
20260901121917 72 0.0 0.0 0.00 0.00 0.00 81 1015.5
20260901120916 71 0.0 0.0 0.00 0.00 0.00 82 1015.3
20260901115937 71 0.0 0.0 0.00 0.00 0.00 82 1015.2
20260901114937 71 0.0 0.0 0.00 0.00 0.00 81 1015.2
20260901113916 71 0.0 0.0 0.00 0.00 0.00 80 1015.1
20260901112917 71 0.0 0.0 0.00 0.00 0.00 80 1015.0
20260901111917 72 0.0 0.0 0.00 0.00 0.00 80 1015.1
20260901110917 72 180 1.0 2.0 0.00 0.00 0.00 80 1014.9
20260901105916 72 0.0 1.0 0.00 0.00 0.00 79 1014.9
20260901104917 72 180 1.0 1.0 0.00 0.00 0.00 80 1014.9
20260901103937 72 0.0 0.0 0.00 0.00 0.00 79 1014.8
20260901102937 72 0.0 0.0 0.00 0.00 0.00 79 1014.8
20260901101917 72 0.0 0.0 0.00 0.00 0.00 79 1014.8
20260901100917 72 0.0 0.0 0.00 0.00 0.00 79 1014.7
20260901095957 72 0.0 0.0 0.00 0.00 0.00 78 1014.7
20260901094917 73 0.0 0.0 0.00 0.00 0.00 78 1014.6
20260901093916 73 0.0 0.0 0.00 0.00 0.00 78 1014.4
20260901092917 73 0.0 0.0 0.00 0.00 0.00 79 1014.3
20260901091917 72 0.0 0.0 0.00 0.00 0.00 79 1014.1
20260901090917 72 0.0 0.0 0.00 0.00 0.00 79 1014.1
20260901090056 73 0.0 0.0 0.00 0.00 0.00 78 1014.0
20260901085819 73 0.0 0.0 0.00 0.00 0.00 78 1014.0
20260901084817 73 0.0 0.0 0.00 0.00 0.00 77 1013.9
20260901083817 73 0.0 0.0 0.00 0.00 0.00 78 1014.0
20260901082817 72 0.0 0.0 0.00 0.00 0.00 79 1014.1
20260901081817 71 0.0 0.0 0.00 0.00 0.00 81 1014.0
20260901080817 70 0.0 0.0 0.00 0.00 0.00 82 1013.8
20260901075857 71 0.0 0.0 0.00 0.00 0.00 83 1013.9
20260901074818 71 90 1.0 1.0 0.00 0.00 0.00 83 1013.9
20260901073817 70 0.0 0.0 0.00 0.00 0.00 86 1013.9
20260901072817 70 0.0 0.0 0.00 0.00 0.00 85 1013.9
20260901071817 70 0.0 0.0 0.00 0.00 0.00 85 1013.9
20260901070817 70 0.0 0.0 0.00 0.00 0.00 84 1013.9
20260901065817 71 0.0 0.0 0.00 0.00 0.00 84 1013.9
20260901064818 71 0.0 0.0 0.00 0.00 0.00 83
20260901063817 71 0.0 0.0 0.00 0.00 0.00 82
20260901062837 71 0.0 0.0 0.00 0.00 0.00 81
20260901061817 72 0.0 0.0 0.00 0.00 0.00 82 1014.0
20260901060837 72 0.0 0.0 0.00 0.00 0.00 80 1013.9
20260901055817 72 0.0 0.0 0.00 0.00 0.00 79 1013.9
20260901054817 73 0.0 0.0 0.00 0.00 0.00 79 1013.8